Location: Arrien
(43.3167°N, 0.1500°W)
Time: 03:15:02
(UTC+00:00)

Cosmos 494 Rocket - Pass Details

Date: 15 October 2021
Orbit: 743 x 770 km, 74.1° (Epoch: 02 December)

Event Time Altitude Azimuth Distance (km) Brightness Sun altitude
Rises 18:26:23 0° 339° (NNW) 3,240 7.5 -13.3°
Reaches altitude 10° 18:28:47 10° 340° (NNW) 2,306 6.7 -13.7°
Maximum altitude 18:34:02 88° 68° (ENE) 765 3.9 -14.7°
Drops below altitude 10° 18:39:12 10° 160° (SSE) 2,272 6.2 -15.6°
Sets 18:41:32 0° 161° (SSE) 3,188 7.0 -16.1°
